Mid-South Regional Weather Roundup Report



Select Weather Forecast Office:  



NWS Memphis Weather Forecast Office

NWS - Mid-South Regional Weather Roundup Report
County Warning Area [CWA]: MEG
Regional NWS Weather Office: Memphis, TN

523
ASUS44 KMEG 182110
RWRMEG
MEMPHIS CWA HOURLY WEATHER ROUNDUP
NATIONAL WEATHER SERVICE MEMPHIS TN
300 PM CST THU JAN 18 2018

...WEST TENNESSEE...

CITY           SKY/WX    TMP DP  RH WIND       PRES   REMARKS
MEMPHIS INTL   FAIR      35  16  45 S8        30.43F WCI  29
NWS MEMPHIS      N/A     37 N/A N/A MISG        N/A
JACKSON        FAIR      35  13  40 S5        30.42F WCI  31
DYERSBURG      FAIR      34  14  43 VRB5      30.42F WCI  30


...EASTERN ARKANSAS...

CITY           SKY/WX    TMP DP  RH WIND       PRES   REMARKS
JONESBORO      FAIR      34  20  56 S16       30.39F WCI  24
WEST MEMPHIS   FAIR      32  22  66 S13       30.43F WCI  22
BATESVILLE     FAIR      43   8  23 SW9       30.35F
NEWPORT        FAIR      37  21  52 S17       30.38F WCI  27
WALNUT RIDGE   FAIR      36  20  52 S14       30.37F WCI  27
BLYTHEVILLE    FAIR      30  20  66 SW12      30.41F WCI  20
SEARCY         FAIR      41  16  36 S13       30.40F
STUTTGART      FAIR      35  18  49 S9        30.44F WCI  28
PINE BLUFF     FAIR      38  18  44 S10       30.44F WCI  31
MONTICELLO     FAIR      41  13  31 SW7       30.44F


...NORTH MISSISSIPPI...

CITY           SKY/WX    TMP DP  RH WIND       PRES   REMARKS
TUPELO         FAIR      38  11  32 VRB3      30.45F
OXFORD         FAIR      39  12  33 VRB5      30.44F
BATESVILLE     FAIR      35  15  44 W7        30.46F WCI  29
OLIVE BRANCH   SUNNY     36  18  48 S5        30.42F WCI  32
TUNICA           N/A     32  21  64 S9        30.46F WCI  24
CLARKSDALE     SUNNY     34  19  55 S7        30.46F WCI  28
GREENWOOD      FAIR      37  16  42 VRB3      30.47F
COLUMBUS       FAIR      38  17  42 CALM      30.46F
STARKVILLE     FAIR      39  12  33 CALM      30.47F
GOLDEN TRIANGL FAIR      39  11  31 W5        30.47F


...SOUTHEAST MISSOURI...

CITY           SKY/WX    TMP DP  RH WIND       PRES   REMARKS
KENNETT        FAIR      30  23  74 S14G20    30.38F WCI  20
MALDEN         FAIR      34  25  69 S12       30.38F WCI  25
WEST PLAINS    FAIR      38  14  37 SW8       30.28F WCI  32
POPLAR BLUFF   FAIR      33  21  61 SW7       30.35F WCI  27
CAPE GIRARDEAU FAIR      29  18  63 S15       30.35F WCI  18


...NORTHWEST ALABAMA...

CITY           SKY/WX    TMP DP  RH WIND       PRES   REMARKS
MUSCLE SHOALS  FAIR      36  14  40 W5        30.45F WCI  32


...MIDDLE TENNESSEE...

CITY           SKY/WX    TMP DP  RH WIND       PRES   REMARKS
NASHVILLE      FAIR      36  15  42 VRB5      30.42F WCI  32
CLARKSVILLE    FAIR      32  11  41 SW12      30.38F WCI  23


...WESTERN KENTUCKY...

CITY           SKY/WX    TMP DP  RH WIND       PRES   REMARKS
PADUCAH        FAIR      30  13  49 S8G18     30.36F WCI  22
FORT CAMPBELL  FAIR      32  13  44 S9        30.37F WCI  24


...CENTRAL ARKANSAS...

CITY           SKY/WX    TMP DP  RH WIND       PRES   REMARKS
LITTLE ROCK    FAIR      41  13  31 S8        30.41F


SKY/WX REPORTED AS FAIR MEANS FEW OR NO CLOUDS BELOW
12 THOUSAND FEET.

Mid-South Regional Weather Roundup Report from: NOAA-NWS